Location: Unspecified
(0.0000°N, 0.0000°E)
Time: 01:26:29
(UTC+00:00)

A-11 Canister half - Pass Details

Date: 24 November 2019
Orbit: 1515 x 1685 km, 47.2° (Epoch: 10 December)

Event Time Altitude Azimuth Distance (km) Brightness Sun altitude
Rises 00:58:51 0° 325° (NW) 4,882 - -63.0°
Reaches altitude 10° 01:02:04 10° 328° (NNW) 3,878 - -62.4°
Maximum altitude 01:11:55 71° 51° (NE) 1,677 - -60.8°
Exits shadow 01:19:40 17° 131° (SE) 3,217 10.9 -59.4°
Drops below altitude 10° 01:21:24 10° 133° (SE) 3,752 11.4 -59.1°
Sets 01:24:26 0° 135° (SE) 4,717 12.0 -58.5°
